Wind_Speed
28 27 26 26 26 26 26 26 25 25 25 25 25 25 26 26 26 26 26 27 27 27 28 28 28 28 29 29 30 30 30 30 30 30 30 30 30 30 30 30 30 30 30
31 29 29 28 28 28 27 27 27 26 26 26 26 26 26 26 26 26 26 27 27 27 27 28 28 29 30 30 30 30 30 31 31 31 31 31 31 32 32 32 32 32 32
33 32 32 31 30 30 29 29 29 28 28 28 27 27 27 26 27 27 27 27 27 27 28 29 29 30 30 30 30 31 31 31 32 32 32 32 33 33 33 33 34 34 34
36 36 35 34 34 33 32 31 31 30 30 30 29 29 28 28 27 28 28 28 28 29 29 29 30 30 30 30 30 31 31 31 32 32 32 33 33 33 33 34 34 35 36
39 39 38 38 37 36 35 35 34 33 32 32 31 31 30 29 29 29 30 30 30 30 30 30 30 30 31 31 31 31 31 32 32 32 32 32 33 34 34 34 35 36 36
42 42 41 41 41 40 39 38 38 37 35 35 34 33 33 32 31 31 32 32 32 32 32 32 32 32 32 33 32 32 32 32 33 33 33 34 34 34 35 35 36 37 37
45 44 44 44 44 43 43 42 41 40 39 38 37 37 36 35 34 34 34 34 34 34 34 34 35 35 35 35 34 34 35 35 35 35 35 35 36 36 36 37 38 38 39
47 47 47 48 48 47 47 46 45 44 42 41 41 40 39 37 36 36 36 36 36 37 36 37 37 37 37 38 38 37 37 37 37 38 37 37 38 38 38 39 40 40 40
50 50 50 51 51 51 50 49 48 48 46 45 44 43 41 40 39 39 39 39 39 39 40 40 40 40 40 41 41 41 41 41 42 42 41 41 41 41 41 42 42 43 43
53 53 53 53 53 53 53 52 51 50 50 49 48 47 45 44 43 43 43 43 43 43 43 43 43 43 44 45 45 44 45 45 46 45 45 45 45 45 46 46 46 46 46
55 55 56 56 56 56 55 55 54 54 53 52 51 50 49 47 46 46 46 46 45 45 46 47 47 48 47 48 48 48 48 48 49 49 49 49 49 49 50 50 50 50 51
56 58 59 59 59 59 58 58 57 57 55 55 54 53 52 51 50 50 50 50 49 49 49 50 51 51 50 50 51 51 52 52 53 52 52 52 52 53 53 54 55 55 56
59 59 61 62 62 62 62 61 60 59 58 57 56 55 55 54 54 52 52 53 52 52 52 53 54 54 53 53 54 54 55 56 56 56 56 55 56 57 58 59 59 60 60
62 63 64 64 65 65 65 64 63 62 61 59 58 58 57 56 56 55 55 55 55 55 55 56 55 57 57 56 56 57 58 58 58 59 59 60 61 61 62 63 63 64 65
66 67 67 67 67 66 66 66 65 64 63 62 61 60 59 58 56 56 57 57 57 56 56 57 57 58 58 58 58 60 60 59 60 61 62 63 63 65 65 66 67 68 69
68 68 68 68 67 66 65 65 65 64 63 62 61 60 59 59 58 58 58 58 57 58 59 59 59 60 61 61 61 61 62 62 63 63 64 66 67 69 69 70 71 72 73
65 65 65 65 64 63 62 61 61 61 61 61 60 60 59 58 59 59 58 58 59 60 60 61 61 62 62 63 63 64 65 65 66 66 68 69 71 72 73 74 75 76 76
58 59 60 60 60 58 58 57 56 55 56 56 56 56 57 58 58 58 59 59 60 60 61 61 62 63 63 65 66 67 67 67 68 69 71 72 74 75 75 76 77 78 79
48 49 50 51 51 51 51 51 50 51 50 51 52 53 54 56 57 57 58 58 59 59 59 60 62 63 64 65 66 67 68 69 70 72 73 75 76 77 77 78 79 80 80
37 38 39 40 40 41 42 43 43 44 45 46 47 48 50 51 53 53 54 54 55 57 59 61 62 63 63 64 66 67 68 70 72 74 76 77 77 78 79 79 78 77 77
27 27 29 30 31 32 33 34 35 36 37 39 41 42 44 46 46 48 50 52 54 56 58 60 61 62 63 65 67 69 70 72 74 75 76 76 77 77 76 75 74 72 70
18 18 19 21 23 24 26 27 28 29 31 33 35 37 38 41 43 46 48 50 52 54 56 58 59 61 63 66 68 70 71 72 72 74 73 73 73 71 70 68 66 64 62
11 12 12 13 15 17 18 20 21 24 26 28 31 34 36 38 42 44 46 49 51 53 55 57 60 62 64 67 68 69 70 70 70 71 69 67 66 64 63 62 61 60 58
8 7 7 8 9 11 14 16 19 21 23 27 30 31 34 37 39 43 45 47 50 53 56 58 60 63 65 66 66 67 67 66 66 66 64 60 58 57 56 55 55 53 51
8 6 5 6 8 9 12 14 17 20 23 25 28 31 34 36 39 42 45 48 51 54 56 59 62 63 64 64 64 63 62 60 58 57 55 51 49 47 47 48 47 46 44
9 8 7 7 8 9 11 14 16 19 22 25 28 30 33 36 39 42 45 49 52 55 58 60 61 61 62 61 60 57 54 51 48 45 44 42 42 41 39 40 42 42 41
Wind_Direction
277 278 279 280 281 282 283 284 284 284 285 286 286 287 287 287 286 287 287 288 288 289 290 291 292 292 292 292 291 290 289 287 285 284 283 282 281 281 279 277 276 275 273
275 276 277 278 279 280 281 282 282 282 283 284 285 286 286 286 285 286 287 288 288 289 290 291 292 293 292 291 291 290 289 287 285 284 283 282 281 280 279 278 277 276 274
274 275 275 275 276 277 278 279 280 281 281 282 284 285 285 285 285 286 287 288 288 289 290 291 293 293 292 291 291 290 289 288 286 285 284 283 282 281 280 278 277 276 275
274 274 274 273 274 274 276 277 278 279 280 281 282 283 284 285 285 286 287 287 288 289 290 291 292 293 292 291 290 290 289 288 287 286 285 284 283 282 281 280 279 278 277
272 272 272 272 272 273 274 275 276 277 278 279 280 281 282 283 284 285 286 287 287 288 289 290 291 291 292 291 290 289 288 287 286 285 285 284 284 283 282 281 280 279 278
269 270 270 271 271 272 272 272 273 274 276 277 278 279 280 281 283 284 285 286 286 287 288 289 289 289 290 290 289 288 288 286 285 284 284 284 283 283 282 281 281 280 279
269 269 269 270 270 270 270 270 271 272 273 274 276 277 278 280 281 282 284 285 285 285 286 287 288 288 288 288 287 286 286 285 284 283 283 283 282 282 282 281 281 280 280
270 269 268 268 268 267 268 269 270 271 272 273 274 275 277 278 279 281 283 284 285 285 285 286 286 287 286 286 285 285 285 284 284 283 282 282 282 281 281 281 281 281 280
267 267 266 266 266 266 266 267 268 269 270 271 272 274 275 276 277 279 281 282 284 283 284 284 285 286 285 285 285 284 284 284 284 282 281 281 281 281 281 281 281 281 280
267 267 266 266 265 266 266 266 266 267 268 270 271 272 273 274 276 278 280 282 282 282 283 283 284 284 284 283 283 283 283 283 283 282 281 281 280 280 280 281 281 281 280
266 265 265 265 265 265 264 264 265 265 266 267 269 270 271 273 275 277 279 280 281 283 284 283 283 283 283 282 282 282 282 282 282 281 281 281 280 280 281 281 281 280 280
265 264 264 263 263 263 263 262 263 263 264 265 267 268 270 272 274 276 278 279 280 281 282 282 282 282 282 282 281 281 282 281 281 281 281 281 280 281 281 281 281 281 280
266 265 263 262 261 261 260 260 260 261 262 263 265 266 268 270 272 274 276 278 279 281 282 282 282 282 281 281 282 281 281 281 281 281 281 281 281 282 283 283 282 282 281
268 266 264 262 260 259 259 259 259 260 261 262 263 265 266 268 270 273 275 277 279 280 282 282 283 282 281 281 281 282 281 281 281 282 282 282 282 283 284 284 283 283 283
269 267 265 263 261 259 259 258 258 258 259 261 262 264 265 267 270 272 275 276 278 280 281 281 281 281 281 282 283 283 282 282 282 282 283 284 284 285 285 285 284 284 283
271 268 266 263 262 260 259 258 257 257 258 259 261 263 265 267 269 271 274 276 277 279 280 280 281 282 283 283 284 284 284 284 284 284 285 285 286 286 286 286 285 284 284
272 268 266 264 262 260 259 258 257 257 257 259 260 262 264 266 268 270 272 275 277 279 280 280 281 283 283 283 285 285 285 285 286 286 286 287 287 287 287 287 286 285 284
272 269 266 264 262 260 258 257 256 256 256 257 259 260 263 265 269 270 272 275 277 279 280 280 282 283 283 284 285 286 286 287 288 288 288 289 289 289 288 287 287 285 284
274 269 266 264 262 260 258 256 255 254 255 256 257 259 262 266 268 270 273 275 277 278 279 280 282 283 284 285 286 288 289 289 290 290 290 290 290 289 289 288 287 286 285
277 270 266 263 262 260 257 255 253 253 253 255 257 260 262 266 269 271 274 275 276 277 278 280 282 284 286 288 289 290 290 291 291 291 291 291 291 290 290 289 288 287 287
279 271 266 262 260 258 255 253 251 251 252 255 258 261 264 268 270 273 273 275 276 278 280 282 284 287 289 290 291 291 292 292 292 292 292 292 292 292 291 290 289 289 288
284 276 268 262 258 254 252 250 250 250 252 254 258 262 265 268 270 273 274 277 279 281 284 286 289 290 291 292 293 294 294 294 294 293 293 293 293 292 291 291 290 290 290
301 285 275 263 256 247 244 246 249 250 252 255 260 263 265 268 271 275 278 280 283 286 288 290 291 293 294 295 296 296 296 296 295 294 294 294 293 293 292 291 292 292 292
318 306 286 269 263 255 250 247 250 254 259 263 265 268 272 274 277 281 284 287 289 291 292 294 296 297 297 298 298 297 297 296 296 295 295 295 294 294 293 293 293 294 294
341 332 306 286 281 271 262 260 263 264 267 270 273 276 279 282 286 289 291 293 294 295 297 298 299 299 299 299 299 298 298 297 297 297 298 298 297 297 297 297 297 298 299
346 341 325 305 292 283 278 277 279 278 279 281 283 287 290 292 294 296 297 298 299 299 300 301 301 300 300 299 299 299 299 299 299 300 301 301 300 300 299 298 298 299 300
Height
5837 5836 5836 5835 5835 5834 5833 5832 5831 5830 5830 5829 5828 5827 5826 5825 5823 5822 5822 5820 5819 5818 5816 5814 5813 5811 5810 5808 5807 5805 5804 5803 5802 5801 5801 5800 5799 5799 5799 5798 5798 5798 5798
5831 5831 5830 5830 5829 5828 5828 5827 5826 5825 5824 5823 5822 5821 5820 5819 5818 5817 5816 5815 5813 5812 5810 5809 5807 5806 5804 5802 5801 5799 5798 5797 5796 5795 5794 5793 5793 5792 5792 5791 5791 5791 5791
5825 5825 5824 5824 5823 5822 5822 5821 5820 5819 5818 5817 5816 5815 5814 5813 5812 5811 5810 5809 5807 5806 5805 5803 5801 5800 5798 5796 5795 5793 5792 5790 5789 5788 5787 5786 5786 5785 5785 5784 5784 5784 5784
5819 5818 5818 5817 5817 5816 5816 5815 5814 5813 5812 5811 5810 5809 5808 5807 5806 5805 5804 5802 5801 5800 5798 5797 5795 5793 5792 5790 5789 5787 5785 5784 5782 5781 5780 5779 5778 5778 5777 5776 5776 5776 5775
5811 5811 5810 5810 5809 5809 5809 5808 5807 5806 5806 5805 5804 5803 5802 5801 5799 5798 5797 5796 5795 5793 5792 5790 5789 5787 5785 5784 5782 5780 5779 5777 5776 5774 5773 5772 5771 5770 5769 5768 5768 5767 5767
5803 5802 5802 5802 5801 5801 5801 5800 5799 5799 5798 5797 5797 5796 5795 5794 5793 5791 5790 5789 5787 5786 5785 5783 5781 5780 5778 5776 5775 5773 5772 5770 5769 5767 5766 5764 5763 5762 5761 5760 5759 5759 5758
5794 5794 5794 5793 5793 5792 5792 5791 5791 5790 5790 5789 5788 5788 5787 5786 5785 5784 5782 5781 5780 5778 5777 5775 5774 5772 5770 5768 5767 5765 5764 5762 5761 5759 5758 5756 5755 5754 5752 5751 5750 5749 5748
5784 5784 5783 5783 5783 5782 5782 5782 5781 5781 5781 5780 5780 5779 5779 5779 5777 5776 5774 5773 5772 5770 5769 5767 5765 5763 5762 5760 5758 5757 5755 5753 5752 5750 5749 5747 5746 5744 5743 5742 5741 5740 5739
5772 5772 5772 5772 5771 5771 5771 5771 5771 5771 5771 5770 5770 5770 5770 5770 5769 5767 5766 5764 5763 5762 5760 5758 5756 5754 5752 5751 5749 5747 5745 5743 5742 5740 5738 5737 5736 5734 5732 5731 5730 5729 5727
5761 5760 5760 5759 5760 5760 5760 5760 5760 5760 5759 5760 5759 5759 5760 5759 5759 5758 5757 5755 5753 5752 5750 5748 5746 5744 5742 5740 5738 5737 5735 5733 5731 5729 5727 5725 5724 5722 5721 5719 5718 5717 5715
5749 5748 5747 5747 5747 5747 5748 5748 5748 5748 5748 5748 5748 5748 5748 5748 5747 5747 5746 5745 5743 5741 5739 5738 5735 5733 5731 5729 5726 5725 5723 5720 5718 5716 5715 5713 5711 5709 5708 5706 5705 5703 5702
5736 5734 5733 5733 5733 5733 5734 5735 5735 5735 5736 5736 5736 5737 5737 5737 5737 5735 5734 5733 5732 5730 5728 5726 5723 5721 5718 5716 5714 5712 5710 5707 5705 5703 5701 5699 5697 5695 5694 5692 5690 5688 5686
5721 5720 5718 5718 5718 5719 5719 5720 5721 5722 5723 5723 5724 5724 5724 5725 5725 5724 5722 5721 5720 5718 5716 5714 5711 5708 5705 5703 5701 5699 5696 5693 5691 5688 5685 5683 5681 5680 5678 5676 5673 5671 5669
5704 5703 5701 5701 5702 5703 5704 5705 5706 5708 5709 5710 5711 5712 5712 5712 5711 5711 5710 5709 5707 5706 5703 5701 5698 5695 5691 5689 5686 5684 5682 5679 5676 5673 5670 5667 5665 5662 5660 5658 5655 5653 5650
5684 5683 5682 5683 5684 5685 5687 5689 5691 5694 5696 5697 5698 5699 5699 5699 5699 5699 5697 5696 5694 5692 5690 5687 5684 5681 5677 5674 5671 5669 5666 5663 5660 5656 5653 5649 5647 5644 5641 5638 5635 5632 5629
5663 5662 5661 5662 5664 5666 5669 5672 5675 5678 5681 5683 5685 5686 5687 5687 5687 5686 5685 5683 5681 5678 5676 5673 5670 5667 5663 5659 5656 5653 5650 5647 5643 5638 5634 5631 5628 5624 5621 5617 5614 5610 5607
5643 5641 5641 5642 5645 5648 5651 5655 5659 5662 5666 5669 5671 5673 5674 5674 5674 5673 5671 5669 5667 5665 5662 5659 5656 5652 5648 5644 5641 5637 5633 5629 5625 5620 5615 5611 5607 5603 5599 5595 5591 5587 5583
5624 5623 5623 5625 5627 5630 5634 5638 5643 5647 5651 5654 5657 5659 5660 5660 5660 5660 5658 5656 5654 5651 5649 5645 5641 5637 5633 5628 5624 5620 5616 5611 5606 5601 5596 5591 5586 5581 5576 5571 5566 5562 5557
5608 5607 5607 5609 5612 5615 5619 5623 5628 5633 5637 5641 5643 5646 5647 5648 5647 5646 5645 5643 5641 5638 5634 5630 5626 5622 5617 5612 5608 5603 5598 5592 5586 5580 5574 5569 5563 5557 5552 5546 5541 5536 5531
5597 5595 5596 5598 5600 5603 5607 5611 5616 5620 5624 5628 5631 5633 5635 5635 5635 5633 5632 5630 5627 5623 5620 5616 5612 5607 5601 5596 5591 5586 5580 5573 5566 5559 5552 5546 5539 5533 5526 5521 5515 5510 5505
5589 5588 5588 5589 5591 5594 5598 5601 5606 5610 5614 5617 5620 5622 5623 5623 5622 5621 5619 5616 5613 5609 5606 5601 5596 5591 5585 5579 5574 5567 5561 5554 5545 5537 5531 5522 5515 5509 5502 5496 5490 5484 5479
5585 5584 5584 5584 5586 5588 5591 5595 5598 5602 5605 5608 5610 5611 5612 5612 5611 5609 5607 5604 5600 5596 5592 5587 5581 5575 5569 5562 5556 5548 5541 5533 5525 5516 5509 5501 5492 5486 5479 5473 5467 5461 5457
5584 5583 5582 5582 5583 5584 5587 5590 5593 5596 5598 5600 5602 5603 5603 5602 5601 5598 5595 5591 5587 5582 5578 5572 5566 5559 5552 5545 5538 5529 5520 5512 5503 5494 5488 5482 5471 5465 5458 5452 5446 5442 5438
5585 5583 5582 5581 5582 5583 5585 5587 5589 5591 5593 5594 5594 5594 5593 5592 5590 5587 5583 5578 5574 5569 5563 5557 5551 5543 5535 5526 5518 5510 5501 5493 5483 5474 5468 5464 5455 5449 5441 5434 5428 5424 5421
5586 5584 5583 5582 5582 5583 5584 5585 5586 5587 5588 5588 5587 5586 5584 5582 5579 5575 5571 5566 5560 5554 5548 5541 5533 5525 5517 5508 5500 5492 5484 5476 5468 5458 5451 5447 5440 5435 5428 5421 5414 5409 5406
5587 5585 5584 5583 5582 5582 5583 5583 5583 5583 5582 5581 5580 5578 5575 5572 5568 5564 5558 5553 5546 5539 5532 5524 5516 5508 5500 5491 5483 5476 5468 5461 5454 5447 5439 5435 5428 5422 5419 5411 5404 5398 5394